Hoquiam, WA
on Sunday, January 13, 2013

Sunday
Previous Day Next Day
Daily Summary
 ActualAverageRecord
Temperature
Mean Temperature °F 43°F  
Max Temperature 37°F 47°F 55°F (1968)
Min Temperature 26°F 38°F 25°F (1963)
Degree Days
Heating Degree Days 34 22  
Month to date heating degree days 297  
Cooling Degree Days 0 0  
Month to date cooling degree days 0  
Year to date cooling degree days 0  
Moisture
Dew Point 27°F   
Average Humidity 83    
Maximum Humidity 93    
Minimum Humidity 65    
Precipitation
Precipitation 0.00 in 0.35 in 1.70 in (1970)
Month to date precipitation 4.57  
Year to date precipitation 4.57  
Wind
Wind Speed 5 mph   
Max Wind Speed 8 mph   
Max Gust Speed mph   
Visibility 10 miles   
Events     

Key: T is trace of precipitation, MM is missing value
Source: NWS Daily Summary
Time(PST)TemperatureDew PointHumidity Pressure Visibility Wind DirectionWind SpeedGust SpeedPrecipitationEvents Conditions
12:53 AM 30.0°F 26.1°F 85% 30.44 in 10.0 miles NE 4.6 mph - N/A   Clear
1:53 AM 28.9°F 26.1°F 89% 30.45 in 10.0 miles NE 5.8 mph - N/A   Clear
2:53 AM 28.0°F 26.1°F 92% 30.45 in 10.0 miles ENE 5.8 mph - N/A   Clear
3:53 AM 28.0°F 26.1°F 92% 30.45 in 10.0 miles NE 3.5 mph - N/A   Clear
4:53 AM 28.0°F 26.1°F 92% 30.45 in 10.0 miles NE 4.6 mph - N/A   Clear
5:53 AM 27.0°F 25.0°F 92% 30.45 in 10.0 miles Calm Calm - N/A   Clear
6:53 AM 26.6°F 24.8°F 93% 30.45 in 10.0 miles NE 5.8 mph - N/A   Clear
7:53 AM 27.0°F 25.0°F 92% 30.48 in 10.0 miles ENE 5.8 mph - N/A   Mostly Cloudy
8:53 AM 28.0°F 26.1°F 92% 30.49 in 10.0 miles ENE 4.6 mph - N/A   Clear
9:53 AM 30.0°F 28.0°F 92% 30.49 in 10.0 miles ENE 5.8 mph - N/A   Clear
10:53 AM 33.1°F 28.9°F 85% 30.50 in 10.0 miles ENE 5.8 mph - N/A   Clear
11:53 AM 36.0°F 28.9°F 76% 30.48 in 10.0 miles ENE 6.9 mph - N/A   Clear
12:53 PM 37.0°F 28.0°F 70% 30.47 in 5.0 miles East 8.1 mph - N/A   Haze
1:53 PM 37.0°F 28.0°F 70% 30.46 in 10.0 miles East 6.9 mph - N/A   Partly Cloudy
2:53 PM 37.0°F 28.0°F 70% 30.45 in 10.0 miles ENE 6.9 mph - N/A   Mostly Cloudy
3:53 PM 37.9°F 27.0°F 65% 30.47 in 10.0 miles North 3.5 mph - N/A   Mostly Cloudy
4:53 PM 37.0°F 27.0°F 67% 30.47 in 10.0 miles NNE 4.6 mph - N/A   Overcast
5:53 PM 36.0°F 28.0°F 73% 30.47 in 10.0 miles NE 4.6 mph - N/A   Overcast
6:53 PM 35.1°F 28.0°F 76% 30.48 in 10.0 miles NE 4.6 mph - N/A   Overcast
7:53 PM 33.1°F 28.0°F 82% 30.47 in 10.0 miles ENE 3.5 mph - N/A   Mostly Cloudy
8:53 PM 32.0°F 27.0°F 82% 30.48 in 10.0 miles NE 3.5 mph - N/A   Clear
9:53 PM 30.9°F 28.0°F 89% 30.49 in 10.0 miles ENE 6.9 mph - N/A   Clear
10:53 PM 30.0°F 27.0°F 88% 30.49 in 10.0 miles ENE 6.9 mph - N/A   Clear
11:53 PM 30.9°F 28.9°F 92% 30.49 in 10.0 miles ENE 5.8 mph - N/A   Overcast
Moon Phase
Jan. 13 Jan. 18 Jan. 26 Feb. 03 Feb. 10
Sunrise:07:57 AM (PST) Moon Rise:08:48 AM (PST)1/13
Sunset:04:51 PM (PST) Moon Set:07:49 PM (PST)1/13

Copyright © 2014 The Weather Underground, Inc.